CGNBR EGHP-EGFF

Flight info

Callsign CGNBR
Flight time 0h 28m
Altitude 2500
Route DIRECT
Aircraft BE58/L-V/N

Departure

Time 2026-05-03 21:24
Airport Popham Airfield (EGHP)

Arrival

Time 2026-05-03 21:53
Airport Cardiff International Airport (EGFF)
Time Latitude Longitude Altitude Speed Heading
2026-05-03 21:21 51.19364 -1.23648 518 ft 0 kts 258°
2026-05-03 21:23 51.19363 -1.23652 518 ft 4 kts 257°
2026-05-03 21:23 51.19285 -1.24083 532 ft 73 kts 251°
2026-05-03 21:24 51.19104 -1.24931 765 ft 91 kts 256°
2026-05-03 21:24 51.18805 -1.26067 948 ft 128 kts 262°
2026-05-03 21:24 51.18942 -1.27576 1199 ft 147 kts 282°
2026-05-03 21:24 51.19144 -1.29227 1430 ft 156 kts 281°
2026-05-03 21:25 51.19348 -1.30970 1649 ft 163 kts 281°
2026-05-03 21:25 51.19555 -1.32765 1844 ft 166 kts 281°
2026-05-03 21:25 51.19768 -1.34609 1932 ft 174 kts 280°
2026-05-03 21:25 51.19978 -1.36527 1945 ft 182 kts 278°
2026-05-03 21:26 51.20211 -1.38540 1946 ft 187 kts 281°
2026-05-03 21:26 51.20449 -1.40591 1945 ft 190 kts 280°
2026-05-03 21:26 51.20677 -1.42577 1943 ft 192 kts 280°
2026-05-03 21:26 51.20914 -1.44680 1948 ft 194 kts 280°
2026-05-03 21:27 51.21149 -1.46802 1946 ft 195 kts 279°
2026-05-03 21:27 51.21386 -1.48926 1950 ft 195 kts 279°
2026-05-03 21:27 51.21624 -1.51058 1940 ft 196 kts 279°
2026-05-03 21:27 51.21862 -1.53196 1949 ft 196 kts 279°
2026-05-03 21:28 51.22095 -1.55305 1949 ft 196 kts 279°
2026-05-03 21:28 51.22329 -1.57444 1944 ft 196 kts 279°
2026-05-03 21:28 51.22564 -1.59576 1945 ft 195 kts 279°
2026-05-03 21:28 51.22775 -1.61496 1935 ft 194 kts 279°
2026-05-03 21:29 51.23007 -1.63616 1941 ft 194 kts 279°
2026-05-03 21:29 51.23236 -1.65732 1939 ft 194 kts 279°
2026-05-03 21:29 51.23465 -1.67854 1943 ft 194 kts 279°
2026-05-03 21:29 51.23694 -1.69976 1944 ft 194 kts 279°
2026-05-03 21:30 51.23918 -1.72066 1939 ft 194 kts 279°
2026-05-03 21:30 51.24147 -1.74190 1942 ft 194 kts 279°
2026-05-03 21:30 51.24379 -1.76308 1942 ft 193 kts 279°
2026-05-03 21:30 51.24613 -1.78423 1943 ft 194 kts 279°
2026-05-03 21:31 51.24846 -1.80543 1943 ft 194 kts 279°
2026-05-03 21:31 51.25079 -1.82656 1939 ft 193 kts 279°
2026-05-03 21:31 51.25311 -1.84755 1938 ft 193 kts 279°
2026-05-03 21:31 51.25542 -1.86869 1937 ft 193 kts 279°
2026-05-03 21:32 51.25767 -1.88955 1928 ft 194 kts 279°
2026-05-03 21:32 51.25995 -1.91072 1929 ft 194 kts 279°
2026-05-03 21:32 51.26225 -1.93192 1929 ft 194 kts 279°
2026-05-03 21:32 51.26451 -1.95316 1927 ft 194 kts 279°
2026-05-03 21:33 51.26679 -1.97440 1926 ft 194 kts 279°
2026-05-03 21:33 51.26909 -1.99565 1928 ft 194 kts 279°
2026-05-03 21:33 51.27139 -2.01690 1930 ft 194 kts 279°
2026-05-03 21:33 51.27370 -2.03816 1930 ft 194 kts 279°
2026-05-03 21:34 51.27596 -2.05913 1930 ft 194 kts 279°
2026-05-03 21:34 51.27823 -2.08019 1929 ft 194 kts 279°
2026-05-03 21:34 51.28050 -2.10146 1926 ft 191 kts 277°
2026-05-03 21:34 51.28244 -2.12157 1914 ft 177 kts 277°
2026-05-03 21:35 51.28436 -2.14041 1917 ft 168 kts 278°
2026-05-03 21:35 51.28628 -2.15865 1917 ft 164 kts 278°
2026-05-03 21:35 51.28820 -2.17651 1917 ft 162 kts 278°
2026-05-03 21:35 51.29011 -2.19411 1919 ft 160 kts 278°
2026-05-03 21:36 51.29201 -2.21161 1915 ft 159 kts 279°
2026-05-03 21:36 51.29385 -2.22884 1916 ft 160 kts 279°
2026-05-03 21:36 51.29571 -2.24635 1917 ft 160 kts 279°
2026-05-03 21:36 51.29756 -2.26393 1917 ft 161 kts 279°
2026-05-03 21:37 51.29940 -2.28155 1924 ft 161 kts 279°
2026-05-03 21:37 51.30125 -2.29930 1924 ft 162 kts 279°
2026-05-03 21:37 51.30309 -2.31702 1922 ft 161 kts 279°
2026-05-03 21:37 51.30495 -2.33462 1922 ft 160 kts 279°
2026-05-03 21:38 51.30677 -2.35183 1921 ft 159 kts 279°
2026-05-03 21:38 51.30861 -2.36933 1923 ft 159 kts 279°
2026-05-03 21:38 51.31044 -2.38677 1925 ft 159 kts 279°
2026-05-03 21:38 51.31224 -2.40427 1922 ft 160 kts 279°
2026-05-03 21:39 51.31402 -2.42189 1922 ft 161 kts 279°
2026-05-03 21:39 51.31577 -2.43957 1922 ft 161 kts 279°
2026-05-03 21:39 51.31750 -2.45729 1921 ft 162 kts 279°
2026-05-03 21:39 51.31924 -2.47507 1920 ft 162 kts 279°
2026-05-03 21:40 51.32098 -2.49289 1924 ft 162 kts 279°
2026-05-03 21:40 51.32272 -2.51070 1926 ft 162 kts 279°
2026-05-03 21:40 51.32444 -2.52831 1924 ft 162 kts 279°
2026-05-03 21:40 51.32614 -2.54578 1924 ft 162 kts 279°
2026-05-03 21:41 51.32789 -2.56362 1923 ft 162 kts 279°
2026-05-03 21:41 51.32963 -2.58147 1931 ft 163 kts 279°
2026-05-03 21:41 51.33136 -2.59933 1932 ft 162 kts 279°
2026-05-03 21:41 51.33310 -2.61717 1933 ft 162 kts 279°
2026-05-03 21:42 51.33484 -2.63497 1937 ft 162 kts 279°
2026-05-03 21:42 51.33658 -2.65281 1939 ft 162 kts 279°
2026-05-03 21:42 51.33831 -2.67069 1941 ft 163 kts 279°
2026-05-03 21:42 51.34002 -2.68837 1940 ft 163 kts 279°
2026-05-03 21:43 51.34177 -2.70626 1937 ft 162 kts 279°
2026-05-03 21:43 51.34349 -2.72404 1936 ft 161 kts 279°
2026-05-03 21:43 51.34521 -2.74175 1935 ft 161 kts 279°
2026-05-03 21:43 51.34693 -2.75944 1934 ft 161 kts 279°
2026-05-03 21:44 51.34853 -2.77595 1936 ft 161 kts 279°
2026-05-03 21:44 51.35023 -2.79362 1936 ft 161 kts 279°
2026-05-03 21:44 51.35194 -2.81129 1936 ft 161 kts 279°
2026-05-03 21:44 51.35365 -2.82897 1926 ft 161 kts 279°
2026-05-03 21:45 51.35533 -2.84642 1927 ft 161 kts 279°
2026-05-03 21:45 51.35704 -2.86409 1927 ft 161 kts 279°
2026-05-03 21:45 51.35876 -2.88179 1926 ft 161 kts 279°
2026-05-03 21:45 51.36050 -2.89955 1926 ft 162 kts 279°
2026-05-03 21:46 51.36225 -2.91736 1924 ft 162 kts 279°
2026-05-03 21:46 51.36403 -2.93517 1925 ft 162 kts 281°
2026-05-03 21:46 51.36593 -2.95300 1924 ft 162 kts 281°
2026-05-03 21:46 51.36603 -2.95400 1924 ft 162 kts 280°
2026-05-03 21:47 51.36752 -2.96885 1924 ft 162 kts 280°
2026-05-03 21:47 51.36912 -2.98498 1925 ft 162 kts 280°
2026-05-03 21:47 51.37087 -3.00280 1924 ft 162 kts 280°
2026-05-03 21:47 51.37258 -3.02029 1925 ft 162 kts 279°
2026-05-03 21:48 51.37432 -3.03809 1930 ft 162 kts 280°
2026-05-03 21:48 51.37606 -3.05587 1934 ft 162 kts 279°
2026-05-03 21:48 51.37779 -3.07364 1935 ft 162 kts 279°
2026-05-03 21:48 51.37953 -3.09143 1936 ft 162 kts 279°
2026-05-03 21:49 51.38126 -3.10926 1944 ft 162 kts 279°
2026-05-03 21:49 51.38300 -3.12709 1945 ft 162 kts 279°
2026-05-03 21:49 51.38473 -3.14494 1945 ft 162 kts 279°
2026-05-03 21:49 51.38644 -3.16257 1946 ft 163 kts 279°
2026-05-03 21:50 51.38817 -3.18046 1945 ft 163 kts 279°
2026-05-03 21:50 51.38928 -3.19282 1940 ft 163 kts 276°
2026-05-03 21:50 51.38954 -3.19579 1939 ft 163 kts 277°
2026-05-03 21:51 51.39119 -3.21364 1765 ft 163 kts 276°
2026-05-03 21:51 51.38835 -3.23213 887 ft 171 kts 243°
2026-05-03 21:51 51.38654 -3.24850 635 ft 155 kts 277°
2026-05-03 21:51 51.38863 -3.26522 372 ft 152 kts 282°
2026-05-03 21:52 51.39058 -3.28113 185 ft 145 kts 284°
2026-05-03 21:52 51.38958 -3.29725 374 ft 147 kts 262°
2026-05-03 21:52 51.38941 -3.31279 400 ft 139 kts 272°
2026-05-03 21:52 51.39128 -3.32615 272 ft 100 kts 294°
2026-05-03 21:53 51.39383 -3.33439 226 ft 73 kts 296°
2026-05-03 21:53 51.39581 -3.34036 214 ft 35 kts 303°
2026-05-03 21:53 51.39703 -3.33990 216 ft 27 kts 49°
2026-05-03 21:53 51.39749 -3.34000 216 ft 4 kts 284°
2026-05-03 21:54 51.39754 -3.34028 216 ft 1 kts 284°
2026-05-03 21:54 51.39754 -3.34029 216 ft 0 kts 284°